SL-14 DEB, 45302

Orbit data source: Space-Track

SL-14 DEB, 45302 is space debris in LEO originally from a launch on Thu, 15 Aug 1991 UTC launched from the Plesetsk Missile And Space Complex (PKMTR). Debris objects in space refer to the collection of defunct objects orbiting the Earth. Examples of debris include non-operational satellites, rocket bodies, and fragments generated from explosions, collisions, or faulty payload assembly.

Loading next visibility...
Identifier
45302, 1991-056AQ
Orbit
LEO
Country
Flag of CISCIS
Related business
Manufacturer
Unknown
Mission
Spacecraft
Bus & Motor
Unknown
Mass
Unknown
Launch date (UTC)
1991-08-15 (34 years ago)
Launch vehicle
Unknown
Launch site
Plesetsk Missile And Space Complex (PKMTR)
Object type
Payload
Rocket body
Debris
Shape & HBR
Unknown
Radar Cross Section
Small (<0.1 m²)

Expand to show TLE details & history
Last TLE update: 17 hours ago

TLE from 17 hours ago
0 SL-14 DEB
1 45302U 91056AQ  25261.05678317  .00005388  00000-0  68741-2 0  9990
2 45302  82.6101 276.6749 0114130 195.7601 163.9984 13.60260245273915
Epoch: 2025-09-18T01:21Z
TLE epoch observation values (Epoch: 2025-09-18T01:21:46.065Z)
Latitude
-0.00005°
Longitude
-100.9909°
Altitude
1,119.03 km
Speed
7.253 km/s
True Right ascension
18h 26m 41s
True Declination
0° 00' 00"
Sunlit
Object was in daylight at epoch
Visualization orbit readout
Latitude
Unknown
Longitude
Unknown
Altitude
Unknown
Speed
Unknown
Apparent Right ascension
Unknown
Apparent Declination
Unknown
Sunlit
N/A
Visualization observer readout
Local Sidereal Time
11:41:36
Azimuth
Unknown
Elevation
Unknown
Doppler factor
Unknown
Orbital elements
Apogee altitude
1,116.499 km
Perigee altitude
947.357 km
Semi-major axis
7,410.065 km
Eccentricity
0.01141
Inclination
82.6101°
RAAN
276.6749°
Arg. of periapsis
195.7601°
True anomaly
164.35404°
Mean anomaly
163.9984°
Eccentric anomaly
164.1767°
Mean motion
3.40259 °/min
Orbital period
105.8 mins
BSTAR
0.0068741
Loading maneuver chart data...
Computing Atmospheric mass density...
Loading historical data...
Loading historical data...
Loading historical data...
Loading historical data...
Loading historical data...
Loading historical data...
Loading historical data...

Documentation

Showing up to 5 results
|